Tracking 18850 objects as of 22-Nov-2017
HD Live streaming from Space Station
objects crossing your sky now

COSMOS 2172

Track COSMOS 2172 now!
COSMOS 2172 is classified as:


NORAD ID: 21789
Int'l Code: 1991-079A
Perigee: 35,782.1 km
Apogee: 35,854.1 km
Inclination: 15.1 °
Period: 1,437.3 minutes
Semi major axis: 42189 km
RCS: 5.0118 m2 (large)
Launch date: November 22, 1991
Source: Commonwealth of Independent States (former USSR) (CIS)
Launch site: TYURATAM MISSILE AND SPACE COMPLEX (TTMTR)
aabbcc
Your satellite tracking list
Your tracking list is empty




NASA's NSSDC Master Catalog

Two Line Element Set (TLE):
1 21789U 91079A   17325.48884141 +.00000099 +00000-0 +00000-0 0  9997
2 21789 015.0501 007.1985 0008536 279.2605 164.4622 01.00185030015979
Source of the keplerian elements: AFSPC